Regional Weather Roundup
Issued by NWS

Home | Current Version | Previous Version | Graphics & Text | Print | Product List | Glossary On
Versions: 1 2 3 4 5 6 7 8 9 10 11 12 13 14 15 16 17 18 19 20 21 22 23 24 25 26 27 28 29 30 31 32 33 34 35 36 37 38 39 40 41 42 43 44 45 46 47 48 49 50
000
ASUS43 KFSD 261202
RWRSD

WEATHER ROUNDUP FOR SOUTH DAKOTA
NATIONAL WEATHER SERVICE SIOUX FALLS SD
700 AM CDT SAT JUL 26 2014

NOTE: "FAIR" INDICATES FEW OR NO CLOUDS BELOW 12,000 FEET WITH NO
SIGNIFICANT WEATHER AND/OR OBSTRUCTIONS TO VISIBILITY.


SDZ001>005-009-010-012>017-261300-
NORTHWEST AND NORTH CENTRAL SOUTH DAKOTA

CITY           SKY/WX    TMP DP  RH WIND       PRES   REMARKS
BUFFALO          N/A     56  44  64 VRB6      29.95R
FAITH            N/A     59  50  72 NW12      29.96R
MOBRIDGE       MOCLDY    64  61  90 N7        29.87R
$$

SDZ012>016-024>037-041>051-057-063-072>074-261300-
SOUTHWEST AND SOUTH CENTRAL SOUTH DAKOTA

CITY           SKY/WX    TMP DP  RH WIND       PRES   REMARKS
RAPID CTY ARPT CLEAR     63  51  65 N17       29.97R
PIERRE         CLOUDY    69  67  93 NW6       29.85R THUNDER
CUSTER         CLEAR     63  36  36 NW7       30.10R
ELLSWORTH AFB  CLEAR     67  51  56 N22G28    29.98R
PHILIP         CLOUDY    69  65  86 NE6       29.88R
PINE RIDGE     CLEAR     57  52  83 W7        29.96R
WINNER         CLOUDY    71  67  87 E9        29.85F
$$

SDZ004>011-016>023-039-040-261300-
NORTHEAST SOUTH DAKOTA

CITY           SKY/WX    TMP DP  RH WIND       PRES   REMARKS
ABERDEEN       PTCLDY    56  56 100 CALM      29.82R
WATERTOWN      MOCLDY    67  64  90 N5        29.83R
SISSETON         N/A     59  59 100 CALM      29.80R
$$

SDZ017-020-022-023-036>040-048>070-261300-
SOUTHEAST SOUTH DAKOTA

CITY           SKY/WX    TMP DP  RH WIND       PRES   REMARKS
SIOUX FALLS    LGT RAIN  71  68  90 SE9       29.86F
HURON          CLOUDY    69  66  90 S7        29.81R
CHAMBERLAIN    MOCLDY    68  66  93 SE7       29.86R
MITCHELL       CLOUDY    70  67  90 S8        29.83S
YANKTON        CLOUDY    70  70 100 NE6       29.85R
$$

ABBREVIATIONS USED IN REMARKS
   TC - TEMPERATURE IN CELSIUS
  WCI - WIND CHILL INDEX
   HX - HEAT INDEX
  VSB - VISIBILITY



USA.gov is the U.S. government's official web portal to all federal, state and local government web resources and services.